Location: Sevilla
(37.3933°N, 5.9839°W)
Time: 05:28:35
(UTC+02:00)

Vanguard 3 - Pass Details

Date: 28 June 2024
Orbit: 508 x 3231 km, 33.4° (Epoch: 15 July)

Event Time Altitude Azimuth Distance (km) Brightness Sun altitude
Rises 14:49:58 0° 276° (W) 4,360 10.9 75.0°
Reaches altitude 10° 14:54:05 10° 265° (W) 2,907 10.2 74.7°
Maximum altitude 14:59:08 23° 214° (SW) 1,619 9.4 74.3°
Drops below altitude 10° 15:02:46 10° 161° (SSE) 2,018 9.5 73.9°
Sets 15:05:05 0° 145° (SE) 2,754 10.0 73.7°
